FIN5X EFKT-EFHK

Flight info

Callsign FIN5X
Flight time 1h 9m
Altitude 35000
Route TUGPU Y86 LUSEP
Aircraft A321/M-SDE1E2E3FGHIJ1M1RWXYZ/LB1

Departure

Time 2026-04-25 15:18
Airport Kittilä International Airport (EFKT)

Arrival

Time 2026-04-25 16:27
Airport Helsinki Vantaa Airport (EFHK)
Time Latitude Longitude Altitude Speed Heading
2026-04-25 14:17 67.69482 24.85724 642 ft 0 kts 122°
2026-04-25 15:14 67.69477 24.85731 639 ft 1 kts 147°
2026-04-25 15:15 67.69468 24.85723 647 ft 3 kts 201°
2026-04-25 15:15 67.69442 24.85640 645 ft 8 kts 241°
2026-04-25 15:15 67.69465 24.85543 642 ft 7 kts 334°
2026-04-25 15:15 67.69513 24.85515 642 ft 8 kts 349°
2026-04-25 15:16 67.69529 24.85414 644 ft 6 kts 263°
2026-04-25 15:16 67.69522 24.85334 645 ft 4 kts 255°
2026-04-25 15:16 67.69507 24.85194 646 ft 6 kts 254°
2026-04-25 15:17 67.69512 24.85075 646 ft 0 kts 345°
2026-04-25 15:17 67.69631 24.84999 645 ft 58 kts 347°
2026-04-25 15:17 67.70302 24.84564 642 ft 136 kts 345°
2026-04-25 15:18 67.71281 24.83900 1329 ft 145 kts 348°
2026-04-25 15:18 67.73324 24.83858 2727 ft 166 kts 28°
2026-04-25 15:18 67.74111 24.86311 2926 ft 196 kts 65°
2026-04-25 15:19 67.74100 24.90118 3145 ft 221 kts 101°
2026-04-25 15:19 67.73962 24.91454 3290 ft 224 kts 102°
2026-04-25 15:19 67.73133 24.98201 3819 ft 250 kts 105°
2026-04-25 15:19 67.72494 25.02615 4507 ft 261 kts 117°
2026-04-25 15:20 67.71743 25.05103 5084 ft 266 kts 138°
2026-04-25 15:20 67.70059 25.07342 5775 ft 278 kts 166°
2026-04-25 15:20 67.67522 25.08862 6854 ft 284 kts 167°
2026-04-25 15:20 67.65581 25.10062 7681 ft 288 kts 166°
2026-04-25 15:21 67.64284 25.10879 8239 ft 290 kts 166°
2026-04-25 15:21 67.61636 25.12572 9363 ft 295 kts 165°
2026-04-25 15:21 67.59627 25.13865 10132 ft 299 kts 165°
2026-04-25 15:21 67.57601 25.15163 10921 ft 302 kts 166°
2026-04-25 15:22 67.55546 25.16473 11702 ft 305 kts 166°
2026-04-25 15:22 67.54174 25.17344 12217 ft 307 kts 166°
2026-04-25 15:22 67.52081 25.18670 13010 ft 310 kts 166°
2026-04-25 15:22 67.49969 25.20022 13749 ft 314 kts 166°
2026-04-25 15:23 67.47134 25.21856 14505 ft 326 kts 166°
2026-04-25 15:23 67.45612 25.22842 14609 ft 341 kts 166°
2026-04-25 15:23 67.43263 25.24364 14751 ft 361 kts 166°
2026-04-25 15:23 67.40784 25.25962 15199 ft 370 kts 166°
2026-04-25 15:24 67.38261 25.27582 15852 ft 375 kts 166°
2026-04-25 15:24 67.35717 25.29201 16544 ft 378 kts 167°
2026-04-25 15:24 67.33150 25.30831 17223 ft 381 kts 167°
2026-04-25 15:24 67.31437 25.31920 17699 ft 383 kts 167°
2026-04-25 15:25 67.28821 25.33379 18313 ft 385 kts 174°
2026-04-25 15:25 67.25274 25.34108 19091 ft 387 kts 178°
2026-04-25 15:25 67.22571 25.34561 19701 ft 390 kts 178°
2026-04-25 15:25 67.19847 25.35022 20308 ft 393 kts 178°
2026-04-25 15:26 67.17097 25.35485 20906 ft 395 kts 179°
2026-04-25 15:26 67.14339 25.35945 21486 ft 398 kts 179°
2026-04-25 15:26 67.11600 25.36400 22027 ft 401 kts 179°
2026-04-25 15:26 67.08801 25.36866 22575 ft 403 kts 179°
2026-04-25 15:27 67.05985 25.37341 23110 ft 406 kts 179°
2026-04-25 15:27 67.03141 25.37827 23539 ft 409 kts 179°
2026-04-25 15:27 66.97411 25.38791 24326 ft 416 kts 179°
2026-04-25 15:28 66.94548 25.39262 24693 ft 419 kts 179°
2026-04-25 15:28 66.91623 25.39741 25069 ft 422 kts 179°
2026-04-25 15:28 66.88682 25.40221 25429 ft 425 kts 179°
2026-04-25 15:28 66.85720 25.40711 25783 ft 428 kts 179°
2026-04-25 15:29 66.82727 25.41210 26129 ft 431 kts 178°
2026-04-25 15:29 66.79718 25.41709 26478 ft 434 kts 178°
2026-04-25 15:29 66.76674 25.42210 26806 ft 438 kts 178°
2026-04-25 15:29 66.73664 25.42703 27140 ft 441 kts 178°
2026-04-25 15:30 66.70590 25.43205 27465 ft 444 kts 178°
2026-04-25 15:30 66.67502 25.43707 27773 ft 447 kts 178°
2026-04-25 15:30 66.64384 25.44211 28081 ft 450 kts 178°
2026-04-25 15:30 66.61244 25.44718 28371 ft 452 kts 178°
2026-04-25 15:31 66.58089 25.45226 28689 ft 455 kts 178°
2026-04-25 15:31 66.54913 25.45733 28981 ft 458 kts 178°
2026-04-25 15:31 66.51721 25.46241 29288 ft 461 kts 178°
2026-04-25 15:31 66.48513 25.46753 29572 ft 464 kts 178°
2026-04-25 15:32 66.45283 25.47272 29827 ft 466 kts 178°
2026-04-25 15:32 66.42072 25.47785 30094 ft 467 kts 178°
2026-04-25 15:32 66.38828 25.48293 30424 ft 467 kts 178°
2026-04-25 15:33 66.32308 25.49320 31029 ft 469 kts 178°
2026-04-25 15:33 66.29041 25.49837 31319 ft 469 kts 178°
2026-04-25 15:33 66.25819 25.50352 31599 ft 470 kts 178°
2026-04-25 15:33 66.22543 25.50875 31874 ft 471 kts 178°
2026-04-25 15:34 66.19259 25.51394 32156 ft 472 kts 178°
2026-04-25 15:34 66.15978 25.51905 32428 ft 472 kts 178°
2026-04-25 15:34 66.12725 25.52404 32679 ft 473 kts 178°
2026-04-25 15:34 66.10498 25.52743 32889 ft 473 kts 178°
2026-04-25 15:35 66.02815 25.53375 33497 ft 474 kts 182°
2026-04-25 15:35 65.99515 25.53169 33719 ft 474 kts 184°
2026-04-25 15:35 65.96260 25.52818 33938 ft 474 kts 184°
2026-04-25 15:36 65.89673 25.52081 34388 ft 473 kts 184°
2026-04-25 15:36 65.86376 25.51804 34615 ft 473 kts 183°
2026-04-25 15:36 65.83085 25.51588 34853 ft 472 kts 183°
2026-04-25 15:37 65.79804 25.51416 35064 ft 472 kts 182°
2026-04-25 15:37 65.76505 25.51265 35266 ft 471 kts 182°
2026-04-25 15:37 65.73264 25.51114 35461 ft 471 kts 183°
2026-04-25 15:37 65.69993 25.50942 35651 ft 470 kts 183°
2026-04-25 15:38 65.66716 25.50753 35828 ft 470 kts 183°
2026-04-25 15:38 65.63454 25.50555 36002 ft 469 kts 183°
2026-04-25 15:38 65.60183 25.50352 36160 ft 469 kts 183°
2026-04-25 15:38 65.56924 25.50153 36312 ft 468 kts 183°
2026-04-25 15:39 65.53656 25.49956 36474 ft 467 kts 183°
2026-04-25 15:39 65.50447 25.49769 36555 ft 468 kts 183°
2026-04-25 15:39 65.43926 25.49388 36561 ft 467 kts 183°
2026-04-25 15:40 65.38510 25.49068 36564 ft 467 kts 183°
2026-04-25 15:40 65.30935 25.48612 36559 ft 467 kts 183°
2026-04-25 15:41 65.24433 25.48227 36556 ft 467 kts 183°
2026-04-25 15:41 65.17910 25.47857 36561 ft 471 kts 183°
2026-04-25 15:42 65.14658 25.47671 36058 ft 475 kts 183°
2026-04-25 15:42 65.11334 25.47481 35251 ft 480 kts 183°
2026-04-25 15:42 65.07985 25.47294 34786 ft 478 kts 183°
2026-04-25 15:42 65.04646 25.47115 34587 ft 482 kts 182°
2026-04-25 15:43 64.97910 25.46750 34562 ft 485 kts 183°
2026-04-25 15:43 64.91198 25.46369 34564 ft 485 kts 183°
2026-04-25 15:44 64.84437 25.45982 34563 ft 485 kts 183°
2026-04-25 15:44 64.77730 25.45591 34558 ft 484 kts 183°
2026-04-25 15:45 64.70976 25.45218 34561 ft 485 kts 183°
2026-04-25 15:45 64.65366 25.44896 34558 ft 485 kts 183°
2026-04-25 15:46 64.57494 25.44452 34560 ft 485 kts 183°
2026-04-25 15:46 64.50742 25.44086 34563 ft 485 kts 183°
2026-04-25 15:47 64.43983 25.43712 34557 ft 485 kts 183°
2026-04-25 15:47 64.37226 25.43342 34557 ft 485 kts 183°
2026-04-25 15:48 64.30514 25.42977 34553 ft 484 kts 183°
2026-04-25 15:48 64.23760 25.42613 34551 ft 484 kts 183°
2026-04-25 15:49 64.17070 25.42261 34540 ft 484 kts 183°
2026-04-25 15:49 64.10326 25.41904 34541 ft 483 kts 183°
2026-04-25 15:50 64.03601 25.41544 34538 ft 483 kts 183°
2026-04-25 15:50 63.96922 25.41177 34531 ft 482 kts 184°
2026-04-25 15:51 63.91302 25.40867 34531 ft 482 kts 183°
2026-04-25 15:51 63.83501 25.40460 34521 ft 482 kts 183°
2026-04-25 15:52 63.76795 25.40112 34516 ft 482 kts 183°
2026-04-25 15:52 63.70083 25.39785 34518 ft 482 kts 183°
2026-04-25 15:53 63.63411 25.39427 34514 ft 482 kts 183°
2026-04-25 15:53 63.56709 25.39062 34506 ft 482 kts 183°
2026-04-25 15:54 63.49985 25.38720 34498 ft 482 kts 183°
2026-04-25 15:54 63.43270 25.38378 34508 ft 482 kts 183°
2026-04-25 15:55 63.36567 25.38042 34503 ft 482 kts 183°
2026-04-25 15:55 63.29894 25.37698 34496 ft 482 kts 183°
2026-04-25 15:56 63.23170 25.37340 34489 ft 482 kts 183°
2026-04-25 15:56 63.16465 25.37000 34490 ft 482 kts 183°
2026-04-25 15:57 63.09782 25.36671 34490 ft 482 kts 183°
2026-04-25 15:57 63.03075 25.36323 34485 ft 482 kts 183°
2026-04-25 15:58 62.96369 25.35992 34484 ft 481 kts 183°
2026-04-25 15:58 62.89704 25.35674 34475 ft 481 kts 183°
2026-04-25 15:59 62.82996 25.35339 34471 ft 481 kts 184°
2026-04-25 15:59 62.76294 25.34993 34467 ft 480 kts 184°
2026-04-25 16:00 62.71872 25.34764 34459 ft 480 kts 184°
2026-04-25 16:00 62.62962 25.34306 34443 ft 480 kts 184°
2026-04-25 16:01 62.56279 25.33992 34431 ft 480 kts 184°
2026-04-25 16:01 62.49648 25.33688 34426 ft 480 kts 184°
2026-04-25 16:02 62.42962 25.33365 34402 ft 479 kts 184°
2026-04-25 16:02 62.36304 25.33036 34384 ft 478 kts 184°
2026-04-25 16:03 62.32988 25.32872 33867 ft 476 kts 184°
2026-04-25 16:03 62.29669 25.32712 33283 ft 474 kts 184°
2026-04-25 16:03 62.26373 25.32556 32639 ft 471 kts 184°
2026-04-25 16:03 62.23134 25.32401 32039 ft 468 kts 184°
2026-04-25 16:04 62.19896 25.32251 31506 ft 464 kts 184°
2026-04-25 16:04 62.16671 25.32105 31023 ft 459 kts 184°
2026-04-25 16:04 62.13495 25.31959 30569 ft 454 kts 184°
2026-04-25 16:04 62.10338 25.31814 30116 ft 449 kts 184°
2026-04-25 16:05 62.07224 25.31673 29654 ft 445 kts 184°
2026-04-25 16:05 62.04144 25.31528 29134 ft 440 kts 184°
2026-04-25 16:05 61.98129 25.31227 28074 ft 430 kts 185°
2026-04-25 16:06 61.95156 25.31080 27548 ft 424 kts 185°
2026-04-25 16:06 61.92216 25.30938 27021 ft 419 kts 185°
2026-04-25 16:06 61.89299 25.30803 26508 ft 414 kts 184°
2026-04-25 16:06 61.86427 25.30677 26018 ft 410 kts 184°
2026-04-25 16:07 61.83629 25.30554 25519 ft 405 kts 184°
2026-04-25 16:07 61.82677 25.30511 25362 ft 403 kts 184°
2026-04-25 16:07 61.78055 25.30297 24547 ft 396 kts 184°
2026-04-25 16:07 61.75311 25.30164 24083 ft 392 kts 185°
2026-04-25 16:08 61.72604 25.30033 23621 ft 387 kts 185°
2026-04-25 16:08 61.69919 25.29902 23161 ft 384 kts 184°
2026-04-25 16:08 61.67262 25.29774 22673 ft 380 kts 184°
2026-04-25 16:08 61.64621 25.29652 22163 ft 377 kts 184°
2026-04-25 16:09 61.62010 25.29534 21645 ft 374 kts 184°
2026-04-25 16:09 61.59410 25.29419 21126 ft 372 kts 184°
2026-04-25 16:09 61.56863 25.29306 20670 ft 369 kts 184°
2026-04-25 16:09 61.54289 25.29188 20162 ft 367 kts 184°
2026-04-25 16:10 61.51748 25.29069 19658 ft 364 kts 184°
2026-04-25 16:10 61.49223 25.28950 19222 ft 361 kts 184°
2026-04-25 16:10 61.46724 25.28832 18784 ft 357 kts 184°
2026-04-25 16:10 61.44253 25.28714 18352 ft 353 kts 184°
2026-04-25 16:11 61.41804 25.28594 17910 ft 350 kts 184°
2026-04-25 16:11 61.39412 25.28476 17477 ft 346 kts 184°
2026-04-25 16:11 61.37019 25.28364 17030 ft 342 kts 184°
2026-04-25 16:11 61.34650 25.28259 16607 ft 337 kts 184°
2026-04-25 16:12 61.32320 25.28154 16182 ft 333 kts 184°
2026-04-25 16:12 61.30015 25.28049 15782 ft 328 kts 184°
2026-04-25 16:12 61.28506 25.27979 15509 ft 326 kts 184°
2026-04-25 16:12 61.27010 25.27912 15253 ft 323 kts 184°
2026-04-25 16:13 61.24008 25.27777 14704 ft 319 kts 184°
2026-04-25 16:13 61.21845 25.27713 14582 ft 308 kts 183°
2026-04-25 16:13 61.19738 25.27695 14509 ft 297 kts 183°
2026-04-25 16:13 61.17651 25.27688 14440 ft 301 kts 182°
2026-04-25 16:14 61.15548 25.27679 14370 ft 302 kts 183°
2026-04-25 16:14 61.13435 25.27667 14294 ft 303 kts 183°
2026-04-25 16:14 61.11328 25.27651 14221 ft 303 kts 183°
2026-04-25 16:14 61.09210 25.27635 14150 ft 303 kts 183°
2026-04-25 16:15 61.07125 25.27620 13892 ft 302 kts 183°
2026-04-25 16:15 61.05022 25.27610 13537 ft 301 kts 182°
2026-04-25 16:15 61.02930 25.27598 13164 ft 301 kts 182°
2026-04-25 16:15 61.00841 25.27588 12765 ft 300 kts 182°
2026-04-25 16:16 60.98755 25.27577 12388 ft 298 kts 182°
2026-04-25 16:16 60.96682 25.27564 12023 ft 297 kts 183°
2026-04-25 16:16 60.94612 25.27550 11660 ft 296 kts 183°
2026-04-25 16:16 60.92556 25.27535 11289 ft 295 kts 183°
2026-04-25 16:17 60.90506 25.27521 10927 ft 293 kts 183°
2026-04-25 16:17 60.88497 25.27508 10568 ft 292 kts 183°
2026-04-25 16:17 60.86461 25.27493 10210 ft 291 kts 183°
2026-04-25 16:17 60.84436 25.27476 9855 ft 290 kts 183°
2026-04-25 16:18 60.82417 25.27457 9506 ft 289 kts 182°
2026-04-25 16:18 60.81090 25.27446 9443 ft 288 kts 183°
2026-04-25 16:18 60.78368 25.27424 9160 ft 294 kts 182°
2026-04-25 16:18 60.76320 25.27408 8753 ft 293 kts 182°
2026-04-25 16:19 60.74310 25.27392 8353 ft 292 kts 182°
2026-04-25 16:19 60.72273 25.27379 7941 ft 292 kts 182°
2026-04-25 16:19 60.70240 25.27369 7534 ft 291 kts 182°
2026-04-25 16:20 60.66189 25.27338 6745 ft 290 kts 182°
2026-04-25 16:20 60.64195 25.27321 6353 ft 289 kts 182°
2026-04-25 16:20 60.60172 25.27292 5589 ft 288 kts 183°
2026-04-25 16:21 60.58167 25.27275 5180 ft 288 kts 182°
2026-04-25 16:21 60.56164 25.27262 4781 ft 287 kts 183°
2026-04-25 16:21 60.54165 25.27249 4390 ft 286 kts 183°
2026-04-25 16:21 60.52184 25.27235 4003 ft 285 kts 183°
2026-04-25 16:22 60.50236 25.27226 3803 ft 275 kts 183°
2026-04-25 16:22 60.48401 25.27224 3649 ft 253 kts 183°
2026-04-25 16:22 60.46716 25.26729 3513 ft 237 kts 205°
2026-04-25 16:22 60.45337 25.25085 3391 ft 227 kts 227°
2026-04-25 16:23 60.44259 25.22772 3285 ft 225 kts 232°
2026-04-25 16:23 60.43220 25.20442 3091 ft 219 kts 232°
2026-04-25 16:23 60.42206 25.18177 2795 ft 214 kts 232°
2026-04-25 16:23 60.41231 25.16009 2509 ft 209 kts 232°
2026-04-25 16:24 60.40274 25.13882 2251 ft 196 kts 232°
2026-04-25 16:24 60.39392 25.11924 1957 ft 181 kts 232°
2026-04-25 16:24 60.38581 25.10127 1730 ft 166 kts 233°
2026-04-25 16:24 60.37824 25.08446 1501 ft 159 kts 233°
2026-04-25 16:25 60.37096 25.06828 1284 ft 157 kts 234°
2026-04-25 16:25 60.36606 25.05742 1148 ft 151 kts 233°
2026-04-25 16:25 60.35699 25.03736 901 ft 142 kts 234°
2026-04-25 16:25 60.35038 25.02271 738 ft 140 kts 233°
2026-04-25 16:26 60.34378 25.00811 575 ft 140 kts 233°
2026-04-25 16:26 60.33730 24.99391 407 ft 136 kts 233°
2026-04-25 16:26 60.33095 24.97977 218 ft 135 kts 233°
2026-04-25 16:26 60.32505 24.96657 176 ft 112 kts 230°
2026-04-25 16:27 60.32090 24.95739 174 ft 64 kts 227°
2026-04-25 16:27 60.31859 24.95323 174 ft 36 kts 208°
2026-04-25 16:27 60.31708 24.95206 172 ft 18 kts 198°
2026-04-25 16:27 60.31634 24.95279 170 ft 13 kts 91°
2026-04-25 16:28 60.31685 24.95420 171 ft 13 kts 45°
2026-04-25 16:28 60.31751 24.95558 171 ft 14 kts 45°
2026-04-25 16:28 60.31826 24.95717 170 ft 17 kts 49°
2026-04-25 16:28 60.31907 24.95901 170 ft 18 kts 48°
2026-04-25 16:29 60.31903 24.96097 167 ft 13 kts 140°
2026-04-25 16:29 60.31855 24.96252 167 ft 14 kts 91°
2026-04-25 16:29 60.31902 24.96428 167 ft 15 kts 46°
2026-04-25 16:29 60.31960 24.96554 167 ft 7 kts 47°
2026-04-25 16:30 60.31972 24.96627 167 ft 5 kts 112°
2026-04-25 16:30 60.31958 24.96656 167 ft 3 kts 139°
2026-04-25 16:30 60.31950 24.96672 167 ft 1 kts 137°
2026-04-25 16:30 60.31946 24.96678 167 ft 1 kts 137°
2026-04-25 16:31 60.31945 24.96681 167 ft 0 kts 137°